TimeEST,TemperatureF,Dew PointF,Humidity,Sea Level PressureIn,VisibilityMPH,Wind Direction,Wind SpeedMPH,Gust SpeedMPH,PrecipitationIn,Events,Conditions,WindDirDegrees,DateUTC
12:53 AM,28.0,26.1,92,30.00,10.0,Calm,Calm,-,N/A,,Clear,0,2012-11-23 05:53:00
1:53 AM,27.0,25.0,92,29.99,10.0,Calm,Calm,-,N/A,,Clear,0,2012-11-23 06:53:00
2:53 AM,27.0,24.1,89,29.98,10.0,Calm,Calm,-,N/A,,Clear,0,2012-11-23 07:53:00
3:53 AM,26.1,23.0,88,29.95,10.0,Calm,Calm,-,N/A,,Clear,0,2012-11-23 08:53:00
4:53 AM,26.1,24.1,92,29.93,10.0,Calm,Calm,-,N/A,,Clear,0,2012-11-23 09:53:00
5:53 AM,25.0,23.0,92,29.89,10.0,Calm,Calm,-,N/A,,Clear,0,2012-11-23 10:53:00
6:53 AM,24.1,21.0,88,29.87,10.0,Calm,Calm,-,N/A,,Clear,0,2012-11-23 11:53:00
7:53 AM,30.0,26.1,85,29.86,10.0,SSW,3.5,-,N/A,,Clear,200,2012-11-23 12:53:00
8:53 AM,33.1,28.9,85,29.83,10.0,Calm,Calm,-,N/A,,Clear,0,2012-11-23 13:53:00
9:53 AM,46.0,33.1,61,29.79,10.0,SSE,11.5,-,N/A,,Clear,160,2012-11-23 14:53:00
10:53 AM,48.9,33.1,54,29.75,10.0,SSE,16.1,25.3,N/A,,Clear,160,2012-11-23 15:53:00
11:53 AM,53.1,33.1,47,29.70,10.0,SSE,13.8,21.9,N/A,,Clear,160,2012-11-23 16:53:00
12:53 PM,52.0,32.0,47,29.65,10.0,SE,12.7,-,N/A,,Clear,140,2012-11-23 17:53:00
1:53 PM,51.1,30.9,46,29.61,10.0,SSE,16.1,24.2,N/A,,Clear,150,2012-11-23 18:53:00
2:53 PM,52.0,30.9,45,29.61,10.0,South,10.4,-,N/A,,Clear,170,2012-11-23 19:53:00
3:53 PM,53.1,30.9,43,29.63,10.0,South,4.6,-,N/A,,Overcast,170,2012-11-23 20:53:00
4:53 PM,54.0,34.0,47,29.64,10.0,Variable,5.8,-,N/A,,Overcast,0,2012-11-23 21:53:00
5:53 PM,51.1,42.1,71,29.63,10.0,SSE,8.1,-,0.00,Rain,Light Rain,160,2012-11-23 22:53:00
6:53 PM,51.1,39.9,66,29.61,10.0,SSE,9.2,-,0.00,,Overcast,150,2012-11-23 23:53:00
7:53 PM,48.0,41.0,77,29.60,10.0,SSE,4.6,-,0.00,,Overcast,160,2012-11-24 00:53:00
8:53 PM,46.9,44.1,90,29.62,9.0,Variable,3.5,-,0.00,Rain,Light Rain,0,2012-11-24 01:53:00
9:16 PM,46.4,42.8,87,29.60,10.0,Variable,3.5,-,0.03,Rain,Light Rain,0,2012-11-24 02:16:00
9:53 PM,45.0,42.1,90,29.60,10.0,Calm,Calm,-,0.04,Rain,Light Rain,0,2012-11-24 02:53:00
10:53 PM,46.0,37.9,73,29.59,10.0,Variable,5.8,-,0.00,,Overcast,0,2012-11-24 03:53:00
11:53 PM,45.0,35.1,68,29.57,10.0,Variable,5.8,-,N/A,,Overcast,0,2012-11-24 04:53:00